User: anonymous   Login
Location: Dehesa de la Cepeda
(40.6574°N, 4.3013°W)
Time: 15:45:57
(UTC+00:00)
Language:

SR - Orbit

View from above orbital plane
View from above orbital plane
View from above satellite
View from above satellite

Ground track
Ground track

The orbit data is extracted from the following two-line orbital elements,

1 00046U 60007B   21259.73021472  .00000023  00000-0  27720-4 0  9995
2 00046  66.6886 253.5014 0206680 152.9665 208.2392 14.49436994205239
Epoch (UTC): 16 September 2021 17:31:30
Eccentricity: 0.0206680
inclination: 66.6886°
perigee height: 580 km
apogee height: 874 km
right ascension of ascending node: 253.5014°
argument of perigee: 152.9665°
revolutions per day: 14.49436994
mean anomaly at epoch: 208.2392°
orbit number at epoch: 20523

The dashed part of the orbit path shows where the satellite is in the earth's shadow,  

DLR